Flag for Sierra Leone Weather past 2 weeks in Kenema, Sierra Leone

Now
75 °F

Fog.


Feels Like: 74 °F
Forecast: 64 / 91 °F
Wind: 6 mph from Northeast

Location: Roberts Field

Current Time: Dec 18, 2014 at 8:49:54 AM

Latest Report: Dec 18, 2014 at 8:00 AM


Visibility: 0 mi

Pressure: 29.89 "Hg

Humidity: 94%

Dew point: 73 °F

Location of KenemaLocation

Historic Weather in Kenema — Graph

°F

Kenema temperature yesterday

Maximum temperature yesterday: 88 °F (at 3:00 PM)
Minimum temperature yesterday: 75 °F (at 3:00 AM)
Average temperature yesterday: 80 °F

Past Weeks' High & Low Weather Summary

 TemperatureHumidityPressure
High122 °F (Dec 12, 11:30 AM)100% (Dec 6, 6:00 AM)29.95 "Hg (Dec 6, 6:00 AM)
Low72 °F (Dec 13, 3:00 AM)7% (Dec 12, 11:30 AM)29.77 "Hg (Dec 3, 3:30 PM)
Average80 °F85%29.87 "Hg
* Reported Dec 3 7:00 AM — Dec 18 7:30 AM, Kenema, Weather by CustomWeather, © 2014

Note: Actual official high and low records may vary slightly from our data, if they occured in-between our weather recording intervals... More about our weather records

Advertising

Kenema weather history for previous 24 hours

 ConditionsComfort  
Time TempWeatherWind HumidityBarometerVisibility
7:30 AM
Dec 18
75 °FFog.6 mph94%29.86 "Hg0 mi
7:00 AM75 °FFog.5 mph94%29.86 "Hg1 mi
6:30 AM75 °FFog.3 mph94%29.86 "Hg1 mi
6:00 AM75 °FFog.3 mph94%29.86 "Hg2 mi
5:30 AM75 °FFog.5 mph94%29.86 "Hg2 mi
5:00 AM75 °FFog.5 mph94%29.86 "Hg2 mi
4:30 AM77 °FPassing clouds.5 mph94%29.83 "Hg4 mi
3:30 AM77 °FPassing clouds.5 mph94%29.83 "Hg4 mi
1:30 AM77 °FPassing clouds.No wind94%29.89 "Hg4 mi
11:00 PM
Dec 17
79 °FPassing clouds.No wind94%29.92 "Hg5 mi
10:00 PM79 °FPassing clouds.No wind94%29.92 "Hg5 mi
9:00 PM79 °FPassing clouds.No wind94%29.92 "Hg5 mi
8:30 PM79 °FPassing clouds.No wind94%29.89 "Hg5 mi
8:00 PM79 °FPassing clouds.No wind94%29.89 "Hg5 mi
7:30 PM81 °FPassing clouds.No wind89%29.86 "Hg5 mi
7:00 PM81 °FPassing clouds.No wind89%29.86 "Hg5 mi
6:30 PM82 °FPassing clouds.3 mph84%29.83 "Hg5 mi
6:00 PM84 °FPassing clouds.3 mph79%29.83 "Hg5 mi
5:30 PM84 °FScattered clouds.5 mph79%29.83 "Hg5 mi
5:00 PM86 °FPartly sunny.9 mph75%29.83 "Hg4 mi
4:30 PM86 °FPartly sunny.8 mph75%29.83 "Hg4 mi
4:00 PM88 °FPartly sunny.9 mph70%29.83 "Hg4 mi
3:00 PM88 °FPartly sunny.10 mph70%29.83 "Hg5 mi
12:00 PM86 °FPartly sunny.3 mph75%29.92 "Hg6 mi
11:30 AM86 °FPartly sunny.No wind75%29.92 "Hg6 mi
11:00 AM86 °FPartly sunny.3 mph75%29.92 "Hg6 mi
10:30 AM84 °FWarm.5 mph79%29.92 "HgN/A
10:00 AM82 °FPassing clouds.3 mph84%29.95 "Hg5 mi
9:30 AM81 °FPassing clouds.No wind89%29.95 "Hg5 mi
9:00 AM79 °FPassing clouds.No wind94%29.95 "Hg5 mi
8:00 AM77 °FPassing clouds.No wind94%29.92 "Hg4 mi
Weather by CustomWeather, © 2014

See weather overviewHow to use our weather pages